Meteo Giornale » Osservazioni meteo Bolivia » Viru-Viru

ore: 22:00 - Osservazioni Meteo Viru-Viru
Lat. 17° 38' S Lon. 63° 8' W Alt. 373 metri s.l.m.

nuvoloso

25 °C

Nuvoloso

Temp. 24 Ore

24 °C

33 °C

Nord

3.7 Km/h

Dew point 24 °C

Umidità 94 %

Visibilità  10 Km

Il sole sorge alle ore 06:20

Il sole tramonta alle ore 18:05

Data e Ora Cielo e Fenomeni T °C DP °C Um. % Pres. hPa Vis. km Vento km/h
Oggi h: 22:00 nuvoloso Nuvoloso 25 24 94 1011 10 N 3.7
Oggi h: 21:00 poco_nuvoloso Poco Nuvoloso 26 25 94 1010 10 N 3.7
Oggi h: 20:00 sereno Sereno 28 23 74 1008 10 N/NO 13
Oggi h: 19:00 sereno Sereno 29 23 70 1006 10 N/NO 16.7
Oggi h: 18:00 sereno Sereno 30 24 70 1005 10 N/NO 27.8
Oggi h: 17:00 poco_nuvoloso Poco Nuvoloso 32 23 59 1005 10 N/NO 37
Oggi h: 16:00 poco_nuvoloso Poco Nuvoloso 32 23 59 1005 10 N/NO 37
Oggi h: 15:00 nuvoloso Nuvoloso 33 23 55 1005 10 N/NO 40.7
Oggi h: 14:00 nuvoloso Nuvoloso 33 23 55 1007 10 N/NO 44.4
Oggi h: 13:00 molto_nuvoloso Molto Nuvoloso 33 23 55 1008 10 N/NO 46.3
Oggi h: 12:00 nuvoloso Nuvoloso 33 23 55 1008 10 N/NO 44.4
Oggi h: 11:00 nuvoloso Nuvoloso 32 23 59 1010 10 N/NO 44.4
Oggi h: 10:00 poco_nuvoloso Poco Nuvoloso 31 23 62 1010 10 N/NO 37
Oggi h: 09:22 poco_nuvoloso Poco Nuvoloso 30 23 66 1010 10 N/NO 29.6
Oggi h: 09:00 sereno Sereno 29 23 70 1010 10 N 27.8
Oggi h: 08:00 sereno Sereno 27 24 83 1009 10 N 24
Oggi h: 07:00 sereno Sereno 25 23 88 1008 10 N/NO 22.2
Oggi h: 06:00 sereno Sereno 24 23 94 1007 10 N 22.2
Oggi h: 05:00 sereno Sereno 25 22 83 1007 10 N 20.3
Oggi h: 04:00 sereno Sereno 25 22 83 1007 10 N/NO 24
Oggi h: 03:00 sereno Sereno 26 22 78 1007 10 N/NO 24
Oggi h: 02:00 sereno Sereno 26 22 78 1007 10 N/NO 24
Oggi h: 01:00 sereno Sereno 27 22 74 1007 10 N/NO 24
Oggi h: 00:00 sereno Sereno 27 23 78 1008 10 N/NO 22.2
Ieri h: 23:00 sereno Sereno 27 23 78 1008 10 N/NO 22.2